567  
SXUS52 KCHS 230427  
OSOCHS  
 
MARINE OBSERVATIONS  
NATIONAL WEATHER SERVICE CHARLESTON SC  
1100 PM EST WED JAN 22 2020  
   
..DOWNTOWN CHARLESTON AND HARBOR
 
 
 
CITY SKY/WX TMP DP RH WIND PRES REMARKS  
WATERFRONT PRK N/A 45 37 73 N15 30.17S  
   
..LAKE MOULTRIE
 
 
 
CITY SKY/WX TMP DP RH WIND PRES REMARKS  
PINOPOLIS N/A 45 34 65 NE12 30.27R  
   
..LAKE AND SUPPLEMENTAL COASTAL OBSERVATIONS
 
 
 
STATION/POSITION TIME TEMP WIND PRES WAVE SWELL  
AIR SEA DIR/SP/G HT/PER HT/PER/DIR  
(UTC) (F) (DEG/KT/KT) (MB) (FT/S) (FT/S/D)  
CHRLSTN HARBOR 0354 45 53 1026.4F  
FORT PULASKI 0348 47 53 1025.3F  
SAPELO ISLAND NOT AVBL  
WINYAH BAY 0345 42 30/ 8 1026.0S  
LAKE MURRAY 0420 38 10/ 1/ 5 1027.4  
ACE BASIN NERRS 0330 43 360/ 4 1026.0S  
 
   
..C-MAN AND BUOY OBSERVATIONS
 
 
 
STATION/POSITION TIME TEMP WIND PRES WAVE SWELL  
AIR SEA DIR/SP/G HT/PER HT/PER/DIR  
(UTC) (F) (DEG/KT/KT) (MB) (FT/S) (FT/S/D)  
BUOY 41004 0410 66 1024.5  
BUOY 41008 0350 54 58 40/ 23/ 29 1022.6F 7/ 6 3/ 10/13  
FOLLY BEACH CMAN 0400 45 10/ 16/ 20 1026.3S  
PRITCHARDS ISLAN NOT AVBL  
CAPERS NS BUOY 0408 46 54 50/ 19/ 25 1026.8R  
FRIPP NS BUOY 0408 47 54 50/ 21/ 27 1026.3R  
5E ST. MARYS GA 0400 57 N/A 8/ 7 3/ 90/11  
 
 
STATION/POSITION TIME TEMP WIND PRES WAVE SWELL  
AIR SEA DIR/SP/G HT/PER HT/PER/DIR  
(UTC) (F) (DEG/KT/KT) (MB) (FT/S) (FT/S/D)  
FRYING PAN BUOY 0410 53 63 40/ 25/ 31 1025.1  
BUOY 41025 0410 53 75 360/ 23/ 27 1024.9  
CAPE LOOKOUT NC 0400 42 10/ 14/ 18 1027.2R  
BUOY 41002 0410 65 50/ 25/ 31 1020.8  
BUOY 41010 0410 69 40/ 27/ 35 N/A  
ST AUGUSTINE FL 0400 57 56 360/ 25/ 28 1021.4R  
 

 
 
 
CLICK HERE TO GO TO PREVIOUS BULLETINS.

The Nexlab SC Page
The Nexlab GA Page Main Text Page